When you browse on this site, cookies collect data to enhance your experience and personalize the content and advertising you see.
Visit our Privacy Policy to learn more. By continuing to use the site, you agree to this use of cookies and data.
  • In France
  • List of Countries
  • For 7 days
  • Water Temperature
  • Weather Map
  • Weather Widgets
  • user-avatar
    Login

    Hourly Weather Walkden

    Today, 31 May, Sunday

    Time Temperature Precipitation Wind Pressure Humidity
    00:00 +12°C° 0 mm 4 mps 760 mmHg 71%
    01:00 +12°C° 0 mm 3 mps 760 mmHg 74%
    02:00 +11°C° 0 mm 3 mps 760 mmHg 76%
    03:00 +10°C° 0 mm 3 mps 760 mmHg 79%
    04:00 +11°C° 0 mm 3 mps 760 mmHg 76%
    05:00 +11°C° 0 mm 4 mps 760 mmHg 73%
    06:00 +12°C° 0 mm 4 mps 760 mmHg 73%
    07:00 +14°C° 0 mm 4 mps 760 mmHg 64%
    08:00 +15°C° 0 mm 4 mps 760 mmHg 56%
    09:00 +17°C° 0 mm 5 mps 760 mmHg 48%
    10:00 +19°C° 0 mm 4 mps 760 mmHg 46%
    11:00 +20°C° 0 mm 4 mps 760 mmHg 45%
    12:00 +22°C° 0 mm 4 mps 760 mmHg 43%
    13:00 +22°C° 0 mm 4 mps 760 mmHg 45%
    14:00 +22°C° 0 mm 4 mps 760 mmHg 46%
    15:00 +22°C° 0 mm 4 mps 760 mmHg 48%
    16:00 +22°C° 0 mm 4 mps 760 mmHg 51%
    17:00 +21°C° 0 mm 4 mps 760 mmHg 54%
    18:00 +20°C° 0 mm 4 mps 760 mmHg 57%
    19:00 +19°C° 0 mm 4 mps 760 mmHg 59%
    20:00 +17°C° 0 mm 4 mps 761 mmHg 61%
    21:00 +15°C° 0 mm 4 mps 761 mmHg 62%
    22:00 +14°C° 0 mm 4 mps 761 mmHg 64%
    23:00 +13°C° 0 mm 3 mps 762 mmHg 66%

    Tomorrow, 1 June, Monday

    Time Temperature Precipitation Wind Pressure Humidity
    00:00 +12°C° 0 mm 3 mps 762 mmHg 68%
    01:00 +11°C° 0 mm 3 mps 762 mmHg 70%
    02:00 +12°C° 0 mm 2 mps 761 mmHg 73%
    03:00 +10°C° 0 mm 2 mps 761 mmHg 75%
    04:00 +12°C° 0 mm 2 mps 761 mmHg 75%
    05:00 +12°C° 0 mm 3 mps 762 mmHg 74%
    06:00 +12°C° 0 mm 3 mps 762 mmHg 73%
    07:00 +14°C° 0 mm 3 mps 762 mmHg 69%
    08:00 +15°C° 0 mm 4 mps 762 mmHg 64%
    09:00 +18°C° 0 mm 4 mps 761 mmHg 60%
    10:00 +19°C° 0 mm 4 mps 761 mmHg 57%
    11:00 +20°C° 0 mm 4 mps 761 mmHg 54%
    12:00 +21°C° 0 mm 4 mps 761 mmHg 50%
    13:00 +21°C° 0 mm 4 mps 761 mmHg 50%
    14:00 +22°C° 0 mm 4 mps 761 mmHg 49%
    15:00 +22°C° 0 mm 4 mps 761 mmHg 48%
    16:00 +21°C° 0 mm 4 mps 761 mmHg 52%
    17:00 +21°C° 0 mm 4 mps 760 mmHg 57%
    18:00 +20°C° 0 mm 4 mps 760 mmHg 61%
    19:00 +18°C° 0 mm 4 mps 761 mmHg 63%
    20:00 +15°C° 0 mm 4 mps 761 mmHg 65%
    21:00 +14°C° 0 mm 3 mps 761 mmHg 67%
    22:00 +13°C° 0 mm 3 mps 761 mmHg 69%
    23:00 +12°C° 0 mm 3 mps 761 mmHg 70%

    Day after tomorrow, 2 June, Tuesday

    Time Temperature Precipitation Wind Pressure Humidity
    00:00 +12°C° 0 mm 2 mps 761 mmHg 71%
    01:00 +12°C° 0 mm 2 mps 760 mmHg 74%
    02:00 +11°C° 0 mm 1 mps 760 mmHg 77%
    03:00 +11°C° 0 mm 1 mps 760 mmHg 80%
    04:00 +11°C° 0 mm 1 mps 760 mmHg 79%
    05:00 +12°C° 0 mm 1 mps 760 mmHg 77%
    06:00 +13°C° 0 mm 1 mps 759 mmHg 76%
    07:00 +14°C° 0 mm 1 mps 759 mmHg 69%
    08:00 +16°C° 0 mm 1 mps 759 mmHg 62%
    09:00 +18°C° 0 mm 2 mps 759 mmHg 55%
    10:00 +19°C° 0 mm 2 mps 758 mmHg 51%
    11:00 +20°C° 0 mm 2 mps 758 mmHg 47%
    12:00 +21°C° 0 mm 2 mps 758 mmHg 43%
    13:00 +21°C° 0 mm 2 mps 757 mmHg 43%
    14:00 +23°C° 0 mm 2 mps 756 mmHg 43%
    15:00 +23°C° 0 mm 2 mps 756 mmHg 44%
    16:00 +21°C° 0 mm 3 mps 755 mmHg 48%
    17:00 +20°C° 0 mm 3 mps 755 mmHg 53%
    18:00 +19°C° 0 mm 3 mps 754 mmHg 57%
    19:00 +18°C° 0 mm 3 mps 754 mmHg 63%
    20:00 +16°C° 0 mm 2 mps 754 mmHg 69%
    21:00 +14°C° 0 mm 2 mps 754 mmHg 74%
    22:00 +14°C° 0 mm 1 mps 753 mmHg 76%
    23:00 +14°C° 0 mm 1 mps 753 mmHg 79%

    3 June, Wednesday

    Time Temperature Precipitation Wind Pressure Humidity
    00:00 +13°C° 0 mm 1 mps 753 mmHg 81%
    01:00 +13°C° 0 mm 1 mps 752 mmHg 81%
    02:00 +13°C° 0 mm 1 mps 752 mmHg 82%
    03:00 +14°C° 0 mm 1 mps 752 mmHg 83%
    04:00 +13°C° 0.3 mm 2 mps 752 mmHg 82%
    05:00 +12°C° 0.3 mm 3 mps 751 mmHg 82%
    06:00 +12°C° 0.3 mm 4 mps 751 mmHg 81%
    07:00 +12°C° 0.2 mm 4 mps 751 mmHg 80%
    08:00 +12°C° 0.2 mm 4 mps 751 mmHg 79%
    09:00 +12°C° 0.2 mm 4 mps 752 mmHg 78%
    10:00 +14°C° 0 mm 4 mps 752 mmHg 72%
    11:00 +15°C° 0 mm 4 mps 752 mmHg 66%
    12:00 +17°C° 0 mm 4 mps 752 mmHg 61%
    13:00 +17°C° 0.1 mm 5 mps 751 mmHg 59%
    14:00 +17°C° 0.1 mm 5 mps 751 mmHg 58%
    15:00 +17°C° 0.1 mm 5 mps 751 mmHg 57%
    16:00 +17°C° 0.1 mm 5 mps 751 mmHg 60%
    17:00 +16°C° 0.1 mm 5 mps 751 mmHg 64%
    18:00 +15°C° 0.1 mm 5 mps 751 mmHg 67%
    19:00 +14°C° 0 mm 5 mps 751 mmHg 71%
    20:00 +12°C° 0 mm 4 mps 751 mmHg 76%
    21:00 +11°C° 0 mm 3 mps 752 mmHg 80%
    22:00 +11°C° 0 mm 3 mps 751 mmHg 81%
    23:00 +10°C° 0 mm 3 mps 751 mmHg 82%

    4 June, Thursday

    Time Temperature Precipitation Wind Pressure Humidity
    00:00 +10°C° 0 mm 2 mps 751 mmHg 83%
    01:00 +10°C° 0 mm 2 mps 751 mmHg 82%
    02:00 +11°C° 0 mm 1 mps 751 mmHg 82%
    03:00 +11°C° 0 mm 1 mps 750 mmHg 81%
    04:00 +11°C° 0 mm 1 mps 750 mmHg 80%
    05:00 +11°C° 0 mm 1 mps 750 mmHg 78%
    06:00 +10°C° 0 mm 0 mps 750 mmHg 76%
    07:00 +12°C° 0 mm 1 mps 750 mmHg 72%
    08:00 +13°C° 0 mm 2 mps 750 mmHg 69%
    09:00 +14°C° 0 mm 3 mps 749 mmHg 65%
    10:00 +14°C° 0 mm 4 mps 749 mmHg 62%
    11:00 +14°C° 0 mm 5 mps 749 mmHg 60%
    12:00 +15°C° 0 mm 5 mps 749 mmHg 57%
    13:00 +15°C° 0 mm 6 mps 748 mmHg 58%
    14:00 +15°C° 0 mm 6 mps 748 mmHg 59%
    15:00 +15°C° 0 mm 6 mps 748 mmHg 60%
    16:00 +14°C° 0 mm 6 mps 748 mmHg 63%
    17:00 +14°C° 0 mm 6 mps 748 mmHg 65%
    18:00 +14°C° 0 mm 5 mps 748 mmHg 68%
    19:00 +13°C° 0 mm 5 mps 748 mmHg 73%
    20:00 +11°C° 0 mm 4 mps 748 mmHg 78%
    21:00 +10°C° 0 mm 3 mps 748 mmHg 83%
    22:00 +10°C° 0 mm 3 mps 748 mmHg 84%
    23:00 +10°C° 0 mm 3 mps 747 mmHg 85%

    5 June, Friday

    Time Temperature Precipitation Wind Pressure Humidity
    00:00 +10°C° 0 mm 3 mps 747 mmHg 87%
    01:00 +10°C° 0 mm 4 mps 747 mmHg 86%
    02:00 +10°C° 0 mm 4 mps 746 mmHg 86%
    03:00 +9°C° 0 mm 5 mps 746 mmHg 85%
    04:00 +10°C° 0 mm 5 mps 745 mmHg 84%
    05:00 +10°C° 0 mm 5 mps 745 mmHg 82%
    06:00 +11°C° 0 mm 6 mps 745 mmHg 80%
    07:00 +11°C° 0 mm 6 mps 745 mmHg 81%
    08:00 +13°C° 0 mm 6 mps 745 mmHg 82%
    09:00 +13°C° 0 mm 6 mps 745 mmHg 83%
    10:00 +13°C° 0 mm 6 mps 745 mmHg 78%
    11:00 +13°C° 0 mm 6 mps 745 mmHg 72%
    12:00 +14°C° 0 mm 6 mps 745 mmHg 67%
    13:00 +14°C° 0 mm 7 mps 745 mmHg 63%
    14:00 +14°C° 0 mm 7 mps 745 mmHg 60%
    15:00 +14°C° 0 mm 7 mps 745 mmHg 56%
    16:00 +14°C° 0 mm 7 mps 745 mmHg 57%
    17:00 +13°C° 0 mm 6 mps 745 mmHg 58%
    18:00 +11°C° 0 mm 6 mps 746 mmHg 60%
    19:00 +10°C° 0 mm 5 mps 746 mmHg 65%
    20:00 +9°C° 0 mm 5 mps 746 mmHg 70%
    21:00 +8°C° 0 mm 4 mps 747 mmHg 76%
    22:00 +8°C° 0 mm 4 mps 747 mmHg 77%
    23:00 +8°C° 0 mm 3 mps 747 mmHg 79%
    Show more